Year,Month,Day,Hour,Minute,Value (Times are PST for temperature in C)
2012,09,19,00,00,13.20
2012,09,19,00,01,13.20
2012,09,19,00,02,13.20
2012,09,19,00,03,13.30
2012,09,19,00,04,13.30
2012,09,19,00,05,13.20
2012,09,19,00,06,13.20
2012,09,19,00,07,13.10
2012,09,19,00,08,13.10
2012,09,19,00,09,13.00
2012,09,19,00,10,13.00
2012,09,19,00,11,12.90
2012,09,19,00,12,12.80
2012,09,19,00,13,12.70
2012,09,19,00,14,12.70
2012,09,19,00,15,12.60
2012,09,19,00,16,12.50
2012,09,19,00,17,12.50
2012,09,19,00,18,12.40
2012,09,19,00,19,12.30
2012,09,19,00,20,12.30
2012,09,19,00,21,12.30
2012,09,19,00,22,12.20
2012,09,19,00,23,12.20
2012,09,19,00,24,12.10
2012,09,19,00,25,12.10
2012,09,19,00,26,12.00
2012,09,19,00,27,12.00
2012,09,19,00,28,11.90
2012,09,19,00,29,11.90
2012,09,19,00,30,11.80
2012,09,19,00,31,11.80
2012,09,19,00,32,11.80
2012,09,19,00,33,11.80
2012,09,19,00,34,11.70
2012,09,19,00,35,11.70
2012,09,19,00,36,11.70
2012,09,19,00,37,11.60
2012,09,19,00,38,11.60
2012,09,19,00,39,11.60
2012,09,19,00,40,11.60
2012,09,19,00,41,11.60
2012,09,19,00,42,11.60
2012,09,19,00,43,11.60
2012,09,19,00,44,11.50
2012,09,19,00,45,11.50
2012,09,19,00,46,11.60
2012,09,19,00,47,11.60
2012,09,19,00,48,11.60
2012,09,19,00,49,11.60
2012,09,19,00,50,11.60
2012,09,19,00,51,11.70
2012,09,19,00,52,11.70
2012,09,19,00,53,11.70
2012,09,19,00,54,11.80
2012,09,19,00,55,11.80
2012,09,19,00,56,11.80
2012,09,19,00,57,11.80
2012,09,19,00,58,11.80
2012,09,19,00,59,11.80
2012,09,19,01,00,11.80
2012,09,19,01,01,11.80
2012,09,19,01,02,11.80
2012,09,19,01,03,11.80
2012,09,19,01,04,11.80
2012,09,19,01,05,11.80
2012,09,19,01,06,11.80
2012,09,19,01,07,11.70
2012,09,19,01,08,11.70
2012,09,19,01,09,11.70
2012,09,19,01,10,11.60
2012,09,19,01,11,11.60
2012,09,19,01,12,11.60
2012,09,19,01,13,11.60
2012,09,19,01,14,11.60
2012,09,19,01,15,11.40
2012,09,19,01,16,11.40
2012,09,19,01,17,11.40
2012,09,19,01,18,11.40
2012,09,19,01,19,11.50
2012,09,19,01,20,11.60
2012,09,19,01,21,11.60
2012,09,19,01,22,11.60
2012,09,19,01,23,11.60
2012,09,19,01,24,11.60
2012,09,19,01,25,11.60
2012,09,19,01,26,11.60
2012,09,19,01,27,11.60
2012,09,19,01,28,11.60
2012,09,19,01,29,11.60
2012,09,19,01,30,11.60
2012,09,19,01,31,11.60
2012,09,19,01,32,11.60
2012,09,19,01,33,11.60
2012,09,19,01,34,11.60
2012,09,19,01,35,11.60
2012,09,19,01,36,11.60
2012,09,19,01,37,11.60
2012,09,19,01,38,11.60
2012,09,19,01,39,11.60
2012,09,19,01,40,11.60
2012,09,19,01,41,11.60
2012,09,19,01,42,11.60
2012,09,19,01,43,11.60
2012,09,19,01,44,11.60
2012,09,19,01,45,11.60
2012,09,19,01,46,11.60
2012,09,19,01,47,11.60
2012,09,19,01,48,11.60
2012,09,19,01,49,11.60
2012,09,19,01,50,11.60
2012,09,19,01,51,11.60
2012,09,19,01,52,11.60
2012,09,19,01,53,11.60
2012,09,19,01,54,11.60
2012,09,19,01,55,11.60
2012,09,19,01,56,11.60
2012,09,19,01,57,11.60
2012,09,19,01,58,11.60
2012,09,19,01,59,11.60
2012,09,19,02,00,11.60
2012,09,19,02,01,11.60
2012,09,19,02,02,11.60
2012,09,19,02,03,11.60
2012,09,19,02,04,11.60
2012,09,19,02,05,11.60
2012,09,19,02,06,11.60
2012,09,19,02,07,11.60
2012,09,19,02,08,11.60
2012,09,19,02,09,11.60
2012,09,19,02,10,11.60
2012,09,19,02,11,11.60
2012,09,19,02,12,11.60
2012,09,19,02,13,11.60
2012,09,19,02,14,11.70
2012,09,19,02,15,11.70
2012,09,19,02,16,11.70
2012,09,19,02,17,11.70
2012,09,19,02,18,11.70
2012,09,19,02,19,11.70
2012,09,19,02,20,11.80
2012,09,19,02,21,11.80
2012,09,19,02,22,11.80
2012,09,19,02,23,11.90
2012,09,19,02,24,11.90
2012,09,19,02,25,12.00
2012,09,19,02,26,12.00
2012,09,19,02,27,12.00
2012,09,19,02,28,12.00
2012,09,19,02,29,12.10
2012,09,19,02,30,12.10
2012,09,19,02,31,12.10
2012,09,19,02,32,12.10
2012,09,19,02,33,12.00
2012,09,19,02,34,12.00
2012,09,19,02,35,12.00
2012,09,19,02,36,12.00
2012,09,19,02,37,12.00
2012,09,19,02,38,11.90
2012,09,19,02,39,11.90
2012,09,19,02,40,11.90
2012,09,19,02,41,11.90
2012,09,19,02,42,11.80
2012,09,19,02,43,11.80
2012,09,19,02,44,11.80
2012,09,19,02,45,11.80
2012,09,19,02,46,11.80
2012,09,19,02,47,11.80
2012,09,19,02,48,11.80
2012,09,19,02,49,11.80
2012,09,19,02,50,11.80
2012,09,19,02,51,11.80
2012,09,19,02,52,11.80
2012,09,19,02,53,11.80
2012,09,19,02,54,11.80
2012,09,19,02,55,11.80
2012,09,19,02,56,11.80
2012,09,19,02,57,11.80
2012,09,19,02,58,11.80
2012,09,19,02,59,11.90
2012,09,19,03,00,11.90
2012,09,19,03,01,11.90
2012,09,19,03,02,11.90
2012,09,19,03,03,11.90
2012,09,19,03,04,11.90
2012,09,19,03,05,12.00
2012,09,19,03,06,12.00
2012,09,19,03,07,12.00
2012,09,19,03,08,12.00
2012,09,19,03,09,11.90
2012,09,19,03,10,11.90
2012,09,19,03,11,11.90
2012,09,19,03,12,11.90
2012,09,19,03,13,11.90
2012,09,19,03,14,11.90
2012,09,19,03,15,11.80
2012,09,19,03,16,11.80
2012,09,19,03,17,11.80
2012,09,19,03,18,11.80
2012,09,19,03,19,11.80
2012,09,19,03,20,11.80
2012,09,19,03,21,11.80
2012,09,19,03,22,11.70
2012,09,19,03,23,11.70
2012,09,19,03,24,11.70
2012,09,19,03,25,11.60
2012,09,19,03,26,11.60
2012,09,19,03,27,11.60
2012,09,19,03,28,11.60
2012,09,19,03,29,11.60
2012,09,19,03,30,11.60
2012,09,19,03,31,11.60
2012,09,19,03,32,11.60
2012,09,19,03,33,11.60
2012,09,19,03,34,11.60
2012,09,19,03,35,11.60
2012,09,19,03,36,11.60
2012,09,19,03,37,11.60
2012,09,19,03,38,11.60
2012,09,19,03,39,11.60
2012,09,19,03,40,11.60
2012,09,19,03,41,11.60
2012,09,19,03,42,11.60
2012,09,19,03,43,11.60
2012,09,19,03,44,11.60
2012,09,19,03,45,11.60
2012,09,19,03,46,11.60
2012,09,19,03,47,11.60
2012,09,19,03,48,11.60
2012,09,19,03,49,11.70
2012,09,19,03,50,11.70
2012,09,19,03,51,11.70
2012,09,19,03,52,11.70
2012,09,19,03,53,11.70
2012,09,19,03,54,11.80
2012,09,19,03,55,11.80
2012,09,19,03,56,11.80
2012,09,19,03,57,11.80
2012,09,19,03,58,11.80
2012,09,19,03,59,11.80
2012,09,19,04,00,11.80
2012,09,19,04,01,11.80
2012,09,19,04,02,11.80
2012,09,19,04,03,11.80
2012,09,19,04,04,11.80
2012,09,19,04,05,11.70
2012,09,19,04,06,11.70
2012,09,19,04,07,11.60
2012,09,19,04,08,11.60
2012,09,19,04,09,11.60
2012,09,19,04,10,11.60
2012,09,19,04,11,11.60
2012,09,19,04,12,11.50
2012,09,19,04,13,11.40
2012,09,19,04,14,11.40
2012,09,19,04,15,11.40
2012,09,19,04,16,11.40
2012,09,19,04,17,11.30
2012,09,19,04,18,11.30
2012,09,19,04,19,11.20
2012,09,19,04,20,11.10
2012,09,19,04,21,11.10
2012,09,19,04,22,11.10
2012,09,19,04,23,11.00
2012,09,19,04,24,10.90
2012,09,19,04,25,10.90
2012,09,19,04,26,10.90
2012,09,19,04,27,10.80
2012,09,19,04,28,10.80
2012,09,19,04,29,10.70
2012,09,19,04,30,10.70
2012,09,19,04,31,10.60
2012,09,19,04,32,10.70
2012,09,19,04,33,10.70
2012,09,19,04,34,10.70
2012,09,19,04,35,10.70
2012,09,19,04,36,10.70
2012,09,19,04,37,10.70
2012,09,19,04,38,10.60
2012,09,19,04,39,10.60
2012,09,19,04,40,10.60
2012,09,19,04,41,10.60
2012,09,19,04,42,10.60
2012,09,19,04,43,10.60
2012,09,19,04,44,10.60
2012,09,19,04,45,10.60
2012,09,19,04,46,10.60
2012,09,19,04,47,10.60
2012,09,19,04,48,10.70
2012,09,19,04,49,10.70
2012,09,19,04,50,10.80
2012,09,19,04,51,10.90
2012,09,19,04,52,10.90
2012,09,19,04,53,11.00
2012,09,19,04,54,11.10
2012,09,19,04,55,11.10
2012,09,19,04,56,11.20
2012,09,19,04,57,11.20
2012,09,19,04,58,11.30
2012,09,19,04,59,11.30
2012,09,19,05,00,11.30
2012,09,19,05,01,11.30
2012,09,19,05,02,11.40
2012,09,19,05,03,11.40
2012,09,19,05,04,11.50
2012,09,19,05,05,11.60
2012,09,19,05,06,11.60
2012,09,19,05,07,11.60
2012,09,19,05,08,11.70
2012,09,19,05,09,11.70
2012,09,19,05,10,11.70
2012,09,19,05,11,11.80
2012,09,19,05,12,11.80
2012,09,19,05,13,11.80
2012,09,19,05,14,11.80
2012,09,19,05,15,11.80
2012,09,19,05,16,11.80
2012,09,19,05,17,11.80
2012,09,19,05,18,11.80
2012,09,19,05,19,11.80
2012,09,19,05,20,11.80
2012,09,19,05,21,11.80
2012,09,19,05,22,11.80
2012,09,19,05,23,11.70
2012,09,19,05,24,11.70
2012,09,19,05,25,11.70
2012,09,19,05,26,11.60
2012,09,19,05,27,11.60
2012,09,19,05,28,11.60
2012,09,19,05,29,11.50
2012,09,19,05,30,11.40
2012,09,19,05,31,11.40
2012,09,19,05,32,11.40
2012,09,19,05,33,11.30
2012,09,19,05,34,11.30
2012,09,19,05,35,11.20
2012,09,19,05,36,11.20
2012,09,19,05,37,11.20
2012,09,19,05,38,11.10
2012,09,19,05,39,11.10
2012,09,19,05,40,11.10
2012,09,19,05,41,11.10
2012,09,19,05,42,11.10
2012,09,19,05,43,11.10
2012,09,19,05,44,11.10
2012,09,19,05,45,11.00
2012,09,19,05,46,10.90
2012,09,19,05,47,10.90
2012,09,19,05,48,10.90
2012,09,19,05,49,10.90
2012,09,19,05,50,10.80
2012,09,19,05,51,10.80
2012,09,19,05,52,10.70
2012,09,19,05,53,10.70
2012,09,19,05,54,10.60
2012,09,19,05,55,10.60
2012,09,19,05,56,10.60
2012,09,19,05,57,10.60
2012,09,19,05,58,10.60
2012,09,19,05,59,10.60
2012,09,19,06,00,10.60
2012,09,19,06,01,10.60
2012,09,19,06,02,10.60
2012,09,19,06,03,10.50
2012,09,19,06,04,10.40
2012,09,19,06,05,10.40
2012,09,19,06,06,10.40
2012,09,19,06,07,10.40
2012,09,19,06,08,10.40
2012,09,19,06,09,10.40
2012,09,19,06,10,10.40
2012,09,19,06,11,10.40
2012,09,19,06,12,10.30
2012,09,19,06,13,10.30
2012,09,19,06,14,10.30
2012,09,19,06,15,10.30
2012,09,19,06,16,10.30
2012,09,19,06,17,10.30
2012,09,19,06,18,10.40
2012,09,19,06,19,10.40
2012,09,19,06,20,10.40
2012,09,19,06,21,10.30
2012,09,19,06,22,10.30
2012,09,19,06,23,10.30
2012,09,19,06,24,10.20
2012,09,19,06,25,10.20
2012,09,19,06,26,10.20
2012,09,19,06,27,10.10
2012,09,19,06,28,10.10
2012,09,19,06,29,10.10
2012,09,19,06,30,10.10
2012,09,19,06,31,10.10
2012,09,19,06,32,10.10
2012,09,19,06,33,10.10
2012,09,19,06,34,10.20
2012,09,19,06,35,10.20
2012,09,19,06,36,10.30
2012,09,19,06,37,10.30
2012,09,19,06,38,10.30
2012,09,19,06,39,10.30
2012,09,19,06,40,10.30
2012,09,19,06,41,10.30
2012,09,19,06,42,10.30
2012,09,19,06,43,10.30
2012,09,19,06,44,10.30
2012,09,19,06,45,10.30
2012,09,19,06,46,10.40
2012,09,19,06,47,10.40
2012,09,19,06,48,10.30
2012,09,19,06,49,10.30
2012,09,19,06,50,10.30
2012,09,19,06,51,10.30
2012,09,19,06,52,10.20
2012,09,19,06,53,10.20
2012,09,19,06,54,10.20
2012,09,19,06,55,10.20
2012,09,19,06,56,10.20
2012,09,19,06,57,10.20
2012,09,19,06,58,10.20
2012,09,19,06,59,10.20
2012,09,19,07,00,10.20
2012,09,19,07,01,10.20
2012,09,19,07,02,10.20
2012,09,19,07,03,10.20
2012,09,19,07,04,10.20
2012,09,19,07,05,10.10
2012,09,19,07,06,10.10
2012,09,19,07,07,10.10
2012,09,19,07,08,10.10
2012,09,19,07,09,10.10
2012,09,19,07,10,10.10
2012,09,19,07,11,10.00
2012,09,19,07,12,9.90
2012,09,19,07,13,9.90
2012,09,19,07,14,9.90
2012,09,19,07,15,9.90
2012,09,19,07,16,9.90
2012,09,19,07,17,9.90
2012,09,19,07,18,9.90
2012,09,19,07,19,9.90
2012,09,19,07,20,9.90
2012,09,19,07,21,9.90
2012,09,19,07,22,9.90
2012,09,19,07,23,9.90
2012,09,19,07,24,9.90
2012,09,19,07,25,9.90
2012,09,19,07,26,9.90
2012,09,19,07,27,9.90
2012,09,19,07,28,9.90
2012,09,19,07,29,9.90
2012,09,19,07,30,9.90
2012,09,19,07,31,9.90
2012,09,19,07,32,9.90
2012,09,19,07,33,9.90
2012,09,19,07,34,9.80
2012,09,19,07,35,9.80
2012,09,19,07,36,9.80
2012,09,19,07,37,9.90
2012,09,19,07,38,9.90
2012,09,19,07,39,9.90
2012,09,19,07,40,10.10
2012,09,19,07,41,10.10
2012,09,19,07,42,10.10
2012,09,19,07,43,10.20
2012,09,19,07,44,10.30
2012,09,19,07,45,10.30
2012,09,19,07,46,10.30
2012,09,19,07,47,10.40
2012,09,19,07,48,10.40
2012,09,19,07,49,10.40
2012,09,19,07,50,10.50
2012,09,19,07,51,10.60
2012,09,19,07,52,10.60
2012,09,19,07,53,10.70
2012,09,19,07,54,10.70
2012,09,19,07,55,10.80
2012,09,19,07,56,10.80
2012,09,19,07,57,10.80
2012,09,19,07,58,10.80
2012,09,19,07,59,10.90
2012,09,19,08,00,10.90
2012,09,19,08,01,10.90
2012,09,19,08,02,10.90
2012,09,19,08,03,10.90
2012,09,19,08,04,10.90
2012,09,19,08,05,11.00
2012,09,19,08,06,11.10
2012,09,19,08,07,11.10
2012,09,19,08,08,11.10
2012,09,19,08,09,11.10
2012,09,19,08,10,11.20
2012,09,19,08,11,11.30
2012,09,19,08,12,11.30
2012,09,19,08,13,11.40
2012,09,19,08,14,11.50
2012,09,19,08,15,11.60
2012,09,19,08,16,11.60
2012,09,19,08,17,11.60
2012,09,19,08,18,11.70
2012,09,19,08,19,11.70
2012,09,19,08,20,11.70
2012,09,19,08,21,11.70
2012,09,19,08,22,11.80
2012,09,19,08,23,11.80
2012,09,19,08,24,11.80
2012,09,19,08,25,11.90
2012,09,19,08,26,11.90
2012,09,19,08,27,12.00
2012,09,19,08,28,12.00
2012,09,19,08,29,12.10
2012,09,19,08,30,12.10
2012,09,19,08,31,12.20
2012,09,19,08,32,12.30
2012,09,19,08,33,12.30
2012,09,19,08,34,12.30
2012,09,19,08,35,12.40
2012,09,19,08,36,12.40
2012,09,19,08,37,12.50
2012,09,19,08,38,12.50
2012,09,19,08,39,12.60
2012,09,19,08,40,12.70
2012,09,19,08,41,12.70
2012,09,19,08,42,12.80
2012,09,19,08,43,12.90
2012,09,19,08,44,13.00
2012,09,19,08,45,13.00
2012,09,19,08,46,13.10
2012,09,19,08,47,13.10
2012,09,19,08,48,13.20
2012,09,19,08,49,13.30
2012,09,19,08,50,13.30
2012,09,19,08,51,13.40
2012,09,19,08,52,13.40
2012,09,19,08,53,13.50
2012,09,19,08,54,13.50
2012,09,19,08,55,13.50
2012,09,19,08,56,13.60
2012,09,19,08,57,13.60
2012,09,19,08,58,13.60
2012,09,19,08,59,13.60
2012,09,19,09,00,13.70
2012,09,19,09,01,13.70
2012,09,19,09,02,13.70
2012,09,19,09,03,13.80
2012,09,19,09,04,13.80
2012,09,19,09,05,13.90
2012,09,19,09,06,13.90
2012,09,19,09,07,14.00
2012,09,19,09,08,14.00
2012,09,19,09,09,14.10
2012,09,19,09,10,14.10
2012,09,19,09,11,14.20
2012,09,19,09,12,14.20
2012,09,19,09,13,14.20
2012,09,19,09,14,14.20
2012,09,19,09,15,14.20
2012,09,19,09,16,14.20
2012,09,19,09,17,14.20
2012,09,19,09,18,14.20
2012,09,19,09,19,14.30
2012,09,19,09,20,14.30
2012,09,19,09,21,14.40
2012,09,19,09,22,14.40
2012,09,19,09,23,14.50
2012,09,19,09,24,14.50
2012,09,19,09,25,14.60
2012,09,19,09,26,14.70
2012,09,19,09,27,14.70
2012,09,19,09,28,14.80
2012,09,19,09,29,14.80
2012,09,19,09,30,14.90
2012,09,19,09,31,15.00
2012,09,19,09,32,15.10
2012,09,19,09,33,15.10
2012,09,19,09,34,15.20
2012,09,19,09,35,15.20
2012,09,19,09,36,15.30
2012,09,19,09,37,15.30
2012,09,19,09,38,15.30
2012,09,19,09,39,15.40
2012,09,19,09,40,15.50
2012,09,19,09,41,15.60
2012,09,19,09,42,15.60
2012,09,19,09,43,15.70
2012,09,19,09,44,15.80
2012,09,19,09,45,15.80
2012,09,19,09,46,15.90
2012,09,19,09,47,15.90
2012,09,19,09,48,16.00
2012,09,19,09,49,16.10
2012,09,19,09,50,16.10
2012,09,19,09,51,16.10
2012,09,19,09,52,16.20
2012,09,19,09,53,16.30
2012,09,19,09,54,16.40
2012,09,19,09,55,16.40
2012,09,19,09,56,16.40
2012,09,19,09,57,16.60
2012,09,19,09,58,16.60
2012,09,19,09,59,16.70
2012,09,19,10,00,16.70
2012,09,19,10,01,16.70
2012,09,19,10,02,16.70
2012,09,19,10,03,16.70
2012,09,19,10,04,16.70
2012,09,19,10,05,16.70
2012,09,19,10,06,16.60
2012,09,19,10,07,16.50
2012,09,19,10,08,16.40
2012,09,19,10,09,16.40
2012,09,19,10,10,16.40
2012,09,19,10,11,16.40
2012,09,19,10,12,16.60
2012,09,19,10,13,16.60
2012,09,19,10,14,16.70
2012,09,19,10,15,16.70
2012,09,19,10,16,16.70
2012,09,19,10,17,16.70
2012,09,19,10,18,16.70
2012,09,19,10,19,16.80
2012,09,19,10,20,16.90
2012,09,19,10,21,16.90
2012,09,19,10,22,16.90
2012,09,19,10,23,16.90
2012,09,19,10,24,17.00
2012,09,19,10,25,16.90
2012,09,19,10,26,16.90
2012,09,19,10,27,16.90
2012,09,19,10,28,16.90
2012,09,19,10,29,16.90
2012,09,19,10,30,16.90
2012,09,19,10,31,17.00
2012,09,19,10,32,17.00
2012,09,19,10,33,17.00
2012,09,19,10,34,17.10
2012,09,19,10,35,17.00
2012,09,19,10,36,17.00
2012,09,19,10,37,16.90
2012,09,19,10,38,17.00
2012,09,19,10,39,17.00
2012,09,19,10,40,17.00
2012,09,19,10,41,17.00
2012,09,19,10,42,16.90
2012,09,19,10,43,16.90
2012,09,19,10,44,16.90
2012,09,19,10,45,16.80
2012,09,19,10,46,16.80
2012,09,19,10,47,16.80
2012,09,19,10,48,16.80
2012,09,19,10,49,16.90
2012,09,19,10,50,16.90
2012,09,19,10,51,16.90
2012,09,19,10,52,17.00
2012,09,19,10,53,17.00
2012,09,19,10,54,17.00
2012,09,19,10,55,17.00
2012,09,19,10,56,17.00
2012,09,19,10,57,17.00
2012,09,19,10,58,17.00
2012,09,19,10,59,17.00
2012,09,19,11,00,17.00
2012,09,19,11,01,17.00
2012,09,19,11,02,17.10
2012,09,19,11,03,17.10
2012,09,19,11,04,17.10
2012,09,19,11,05,17.20
2012,09,19,11,06,17.20
2012,09,19,11,07,17.20
2012,09,19,11,08,17.30
2012,09,19,11,09,17.30
2012,09,19,11,10,17.30
2012,09,19,11,11,17.30
2012,09,19,11,12,17.40
2012,09,19,11,13,17.40
2012,09,19,11,14,17.30
2012,09,19,11,15,17.40
2012,09,19,11,16,17.50
2012,09,19,11,17,17.50
2012,09,19,11,18,17.60
2012,09,19,11,19,17.50
2012,09,19,11,20,17.40
2012,09,19,11,21,17.30
2012,09,19,11,22,17.20
2012,09,19,11,23,17.20
2012,09,19,11,24,17.10
2012,09,19,11,25,17.00
2012,09,19,11,26,17.00
2012,09,19,11,27,17.00
2012,09,19,11,28,16.90
2012,09,19,11,29,16.90
2012,09,19,11,30,17.00
2012,09,19,11,31,16.90
2012,09,19,11,32,16.90
2012,09,19,11,33,16.90
2012,09,19,11,34,16.90
2012,09,19,11,35,16.90
2012,09,19,11,36,17.00
2012,09,19,11,37,17.10
2012,09,19,11,38,17.20
2012,09,19,11,39,17.20
2012,09,19,11,40,17.20
2012,09,19,11,41,17.10
2012,09,19,11,42,17.00
2012,09,19,11,43,17.00
2012,09,19,11,44,16.90
2012,09,19,11,45,16.90
2012,09,19,11,46,16.90
2012,09,19,11,47,17.00
2012,09,19,11,48,17.00
2012,09,19,11,49,17.10
2012,09,19,11,50,17.10
2012,09,19,11,51,17.10
2012,09,19,11,52,17.10
2012,09,19,11,53,17.20
2012,09,19,11,54,17.20
2012,09,19,11,55,17.10
2012,09,19,11,56,17.10
2012,09,19,11,57,17.20
2012,09,19,11,58,17.30
2012,09,19,11,59,17.30
2012,09,19,12,00,17.40
2012,09,19,12,01,17.50
2012,09,19,12,02,17.50
2012,09,19,12,03,17.60
2012,09,19,12,04,17.70
2012,09,19,12,05,17.70
2012,09,19,12,06,17.70
2012,09,19,12,07,17.70
2012,09,19,12,08,17.80
2012,09,19,12,09,17.90
2012,09,19,12,10,17.90
2012,09,19,12,11,18.00
2012,09,19,12,12,18.10
2012,09,19,12,13,18.20
2012,09,19,12,14,18.20
2012,09,19,12,15,18.20
2012,09,19,12,16,18.20
2012,09,19,12,17,18.10
2012,09,19,12,18,18.10
2012,09,19,12,19,18.10
2012,09,19,12,20,18.00
2012,09,19,12,21,17.90
2012,09,19,12,22,17.90
2012,09,19,12,23,17.90
2012,09,19,12,24,17.80
2012,09,19,12,25,17.80
2012,09,19,12,26,17.90
2012,09,19,12,27,17.90
2012,09,19,12,28,17.90
2012,09,19,12,29,17.80
2012,09,19,12,30,17.70
2012,09,19,12,31,17.70
2012,09,19,12,32,17.60
2012,09,19,12,33,17.50
2012,09,19,12,34,17.50
2012,09,19,12,35,17.60
2012,09,19,12,36,17.60
2012,09,19,12,37,17.70
2012,09,19,12,38,17.70
2012,09,19,12,39,17.60
2012,09,19,12,40,17.60
2012,09,19,12,41,17.60
2012,09,19,12,42,17.60
2012,09,19,12,43,17.60
2012,09,19,12,44,17.60
2012,09,19,12,45,17.60
2012,09,19,12,46,17.60
2012,09,19,12,47,17.70
2012,09,19,12,48,17.60
2012,09,19,12,49,17.60
2012,09,19,12,50,17.60
2012,09,19,12,51,17.60
2012,09,19,12,52,17.70
2012,09,19,12,53,17.70
2012,09,19,12,54,17.90
2012,09,19,12,55,17.90
2012,09,19,12,56,17.90
2012,09,19,12,57,17.90
2012,09,19,12,58,18.00
2012,09,19,12,59,18.10
2012,09,19,13,00,18.00
2012,09,19,13,01,17.90
2012,09,19,13,02,17.90
2012,09,19,13,03,17.90
2012,09,19,13,04,17.90
2012,09,19,13,05,17.80
2012,09,19,13,06,17.80
2012,09,19,13,07,17.70
2012,09,19,13,08,17.70
2012,09,19,13,09,17.80
2012,09,19,13,10,17.80
2012,09,19,13,11,17.90
2012,09,19,13,12,17.90
2012,09,19,13,13,17.90
2012,09,19,13,14,17.90
2012,09,19,13,15,17.90
2012,09,19,13,16,17.90
2012,09,19,13,17,17.90
2012,09,19,13,18,17.90
2012,09,19,13,19,17.90
2012,09,19,13,20,17.90
2012,09,19,13,21,17.90
2012,09,19,13,22,17.90
2012,09,19,13,23,17.80
2012,09,19,13,24,17.90
2012,09,19,13,25,17.90
2012,09,19,13,26,18.00
2012,09,19,13,27,18.10
2012,09,19,13,28,18.10
2012,09,19,13,29,18.10
2012,09,19,13,30,18.00
2012,09,19,13,31,17.90
2012,09,19,13,32,17.90
2012,09,19,13,33,17.90
2012,09,19,13,34,17.90
2012,09,19,13,35,17.90
2012,09,19,13,36,17.90
2012,09,19,13,37,17.90
2012,09,19,13,38,17.90
2012,09,19,13,39,17.90
2012,09,19,13,40,18.00
2012,09,19,13,41,18.10
2012,09,19,13,42,18.20
2012,09,19,13,43,18.30
2012,09,19,13,44,18.30
2012,09,19,13,45,18.30
2012,09,19,13,46,18.30
2012,09,19,13,47,18.30
2012,09,19,13,48,18.30
2012,09,19,13,49,18.20
2012,09,19,13,50,18.20
2012,09,19,13,51,18.20
2012,09,19,13,52,18.20
2012,09,19,13,53,18.20
2012,09,19,13,54,18.20
2012,09,19,13,55,18.20
2012,09,19,13,56,18.30
2012,09,19,13,57,18.40
2012,09,19,13,58,18.30
2012,09,19,13,59,18.20
2012,09,19,14,00,18.20
2012,09,19,14,01,18.20
2012,09,19,14,02,18.20
2012,09,19,14,03,18.30
2012,09,19,14,04,18.30
2012,09,19,14,05,18.40
2012,09,19,14,06,18.40
2012,09,19,14,07,18.50
2012,09,19,14,08,18.50
2012,09,19,14,09,18.50
2012,09,19,14,10,18.50
2012,09,19,14,11,18.50
2012,09,19,14,12,18.50
2012,09,19,14,13,18.50
2012,09,19,14,14,18.60
2012,09,19,14,15,18.60
2012,09,19,14,16,18.50
2012,09,19,14,17,18.50
2012,09,19,14,18,18.50
2012,09,19,14,19,18.50
2012,09,19,14,20,18.50
2012,09,19,14,21,18.50
2012,09,19,14,22,18.50
2012,09,19,14,23,18.50
2012,09,19,14,24,18.60
2012,09,19,14,25,18.60
2012,09,19,14,26,18.70
2012,09,19,14,27,18.70
2012,09,19,14,28,18.60
2012,09,19,14,29,18.50
2012,09,19,14,30,18.50
2012,09,19,14,31,18.50
2012,09,19,14,32,18.60
2012,09,19,14,33,18.60
2012,09,19,14,34,18.50
2012,09,19,14,35,18.50
2012,09,19,14,36,18.50
2012,09,19,14,37,18.50
2012,09,19,14,38,18.60
2012,09,19,14,39,18.60
2012,09,19,14,40,18.70
2012,09,19,14,41,18.70
2012,09,19,14,42,18.70
2012,09,19,14,43,18.80
2012,09,19,14,44,18.80
2012,09,19,14,45,18.80
2012,09,19,14,46,18.90
2012,09,19,14,47,18.80
2012,09,19,14,48,18.80
2012,09,19,14,49,18.80
2012,09,19,14,50,18.90
2012,09,19,14,51,18.90
2012,09,19,14,52,19.10
2012,09,19,14,53,19.10
2012,09,19,14,54,19.10
2012,09,19,14,55,19.10
2012,09,19,14,56,19.20
2012,09,19,14,57,19.20
2012,09,19,14,58,19.30
2012,09,19,14,59,19.30
2012,09,19,15,00,19.20
2012,09,19,15,01,19.20
2012,09,19,15,02,19.30
2012,09,19,15,03,19.30
2012,09,19,15,04,19.30
2012,09,19,15,05,19.40
2012,09,19,15,06,19.40
2012,09,19,15,07,19.40
2012,09,19,15,08,19.40
2012,09,19,15,09,19.50
2012,09,19,15,10,19.60
2012,09,19,15,11,19.60
2012,09,19,15,12,19.70
2012,09,19,15,13,19.70
2012,09,19,15,14,19.80
2012,09,19,15,15,19.80
2012,09,19,15,16,19.80
2012,09,19,15,17,19.80
2012,09,19,15,18,19.70
2012,09,19,15,19,19.60
2012,09,19,15,20,19.50
2012,09,19,15,21,19.40
2012,09,19,15,22,19.40
2012,09,19,15,23,19.40
2012,09,19,15,24,19.50
2012,09,19,15,25,19.50
2012,09,19,15,26,19.60
2012,09,19,15,27,19.60
2012,09,19,15,28,19.60
2012,09,19,15,29,19.70
2012,09,19,15,30,19.70
2012,09,19,15,31,19.70
2012,09,19,15,32,19.80
2012,09,19,15,33,19.80
2012,09,19,15,34,19.90
2012,09,19,15,35,19.90
2012,09,19,15,36,20.00
2012,09,19,15,37,20.10
2012,09,19,15,38,20.20
2012,09,19,15,39,20.20
2012,09,19,15,40,20.20
2012,09,19,15,41,20.20
2012,09,19,15,42,20.20
2012,09,19,15,43,20.20
2012,09,19,15,44,20.20
2012,09,19,15,45,20.30
2012,09,19,15,46,20.40
2012,09,19,15,47,20.40
2012,09,19,15,48,20.40
2012,09,19,15,49,20.30
2012,09,19,15,50,20.20
2012,09,19,15,51,20.20
2012,09,19,15,52,20.10
2012,09,19,15,53,20.10
2012,09,19,15,54,20.10
2012,09,19,15,55,20.10
2012,09,19,15,56,20.10
2012,09,19,15,57,20.10
2012,09,19,15,58,20.10
2012,09,19,15,59,20.20
2012,09,19,16,00,20.20
2012,09,19,16,01,20.30
2012,09,19,16,02,20.40
2012,09,19,16,03,20.50
2012,09,19,16,04,20.60
2012,09,19,16,05,20.70
2012,09,19,16,06,20.80
2012,09,19,16,07,20.90
2012,09,19,16,08,21.00
2012,09,19,16,09,21.00
2012,09,19,16,10,21.10
2012,09,19,16,11,21.20
2012,09,19,16,12,21.20
2012,09,19,16,13,21.20
2012,09,19,16,14,21.30
2012,09,19,16,15,21.20
2012,09,19,16,16,21.10
2012,09,19,16,17,20.90
2012,09,19,16,18,20.80
2012,09,19,16,19,20.70
2012,09,19,16,20,20.60
2012,09,19,16,21,20.50
2012,09,19,16,22,20.40
2012,09,19,16,23,20.30
2012,09,19,16,24,20.20
2012,09,19,16,25,20.20
2012,09,19,16,26,20.10
2012,09,19,16,27,20.10
2012,09,19,16,28,19.90
2012,09,19,16,29,19.90
2012,09,19,16,30,19.90
2012,09,19,16,31,19.90
2012,09,19,16,32,19.90
2012,09,19,16,33,19.90
2012,09,19,16,34,19.80
2012,09,19,16,35,19.80
2012,09,19,16,36,19.70
2012,09,19,16,37,19.60
2012,09,19,16,38,19.60
2012,09,19,16,39,19.60
2012,09,19,16,40,19.50
2012,09,19,16,41,19.50
2012,09,19,16,42,19.50
2012,09,19,16,43,19.50
2012,09,19,16,44,19.50
2012,09,19,16,45,19.50
2012,09,19,16,46,19.50
2012,09,19,16,47,19.50
2012,09,19,16,48,19.50
2012,09,19,16,49,19.50
2012,09,19,16,50,19.60
2012,09,19,16,51,19.60
2012,09,19,16,52,19.60
2012,09,19,16,53,19.60
2012,09,19,16,54,19.50
2012,09,19,16,55,19.50
2012,09,19,16,56,19.50
2012,09,19,16,57,19.50
2012,09,19,16,58,19.50
2012,09,19,16,59,19.50
2012,09,19,17,00,19.40
2012,09,19,17,01,19.40
2012,09,19,17,02,19.40
2012,09,19,17,03,19.40
2012,09,19,17,04,19.40
2012,09,19,17,05,19.50
2012,09,19,17,06,19.50
2012,09,19,17,07,19.60
2012,09,19,17,08,19.60
2012,09,19,17,09,19.70
2012,09,19,17,10,19.80
2012,09,19,17,11,19.80
2012,09,19,17,12,19.70
2012,09,19,17,13,19.70
2012,09,19,17,14,19.80
2012,09,19,17,15,19.70
2012,09,19,17,16,19.70
2012,09,19,17,17,19.70
2012,09,19,17,18,19.70
2012,09,19,17,19,19.70
2012,09,19,17,20,19.80